Location: Phoenix
(33.4480°N, 112.0730°W)
Time: 13:20:29
(UTC-07:00)

Daily predictions for brighter satellites

Satellite Brightness Start Highest point End
(mag) Time Altitude Azimuth Time Altitude Azimuth Time Altitude Azimuth
Envisat 4.4 20:08:42 10° ESE 20:12:32 22° ENE 20:16:22 10° NNE
CZ-4 DEB 2.7 20:16:01 10° SSE 20:19:11 69° ENE 20:22:24 10° N
Cosmos 1441 Rocket 4.4 20:18:00 10° SE 20:21:03 23° E 20:24:06 10° NE
Meteor 1-16 Rocket 4.4 20:15:22 10° N 20:21:20 86° W 20:27:13 10° S
Cosmos 1408 Rocket 3.7 20:18:55 10° S 20:23:20 82° W 20:27:45 10° N
YAOGAN 11 4.1 20:20:20 10° SSE 20:24:33 66° ENE 20:28:52 10° N
ERS-1 Rocket 3.3 20:19:50 10° SSE 20:24:40 51° ENE 20:29:32 10° N
Cosmos 1939 Rocket 3.8 20:25:22 11° SE 20:28:48 31° ENE 20:32:18 10° N
CZ-2C R/B 1.1 20:30:57 19° ESE 20:31:40 25° ENE 20:33:16 10° NNE
Cosmos 405 Rocket 4.2 20:32:01 10° SSW 20:35:28 38° W 20:38:58 10° N
Cosmos 2322 Rocket 2.7 20:32:45 10° N 20:38:05 43° ENE 20:42:26 15° SE
SPOT 5 3.8 20:36:31 14° ESE 20:39:35 28° ENE 20:43:32 10° NNE
Cosmos 2026 Rocket 4.3 20:35:09 10° SSW 20:41:11 71° W 20:47:20 10° N
Cosmos 371 Rocket 3.6 20:40:32 10° N 20:45:12 49° ENE 20:48:39 17° SE
SL-16 R/B 2.6 20:41:13 10° N 20:46:43 48° ENE 20:50:48 17° SE
Cosmos 1151 Rocket 4.5 20:44:16 10° NNE 20:47:33 21° ENE 20:49:18 17° ESE
Cosmos 1980 Rocket 2.9 20:43:28 10° NNW 20:48:59 54° WSW 20:54:30 10° S
Cosmos 2360 Rocket 3.9 20:45:24 10° NNE 20:49:20 19° ENE 20:52:34 12° E
ALOS 3.8 20:46:07 10° SSW 20:50:21 35° W 20:54:38 10° NNW
In-Cosmos 22 4.2 20:47:49 10° S 20:53:34 86° E 20:59:22 10° N
H-2A R/B 2.1 20:51:07 14° SSE 20:54:57 78° ENE 20:59:30 10° N
Cosmos 1538 Rocket 4.2 20:51:37 10° N 20:56:53 57° ENE 21:00:28 20° SE
USA 186 4.2 20:56:45 10° WSW 20:57:44 12° W 20:58:43 10° WNW
Cosmos 1437 Rocket 3.3 20:58:45 10° N 21:02:19 38° E 21:03:44 27° SE
Cosmos 1674 3.0 21:01:11 24° SSE 21:03:05 44° E 21:06:45 10° NNE
Cosmos 2228 Rocket 3.3 20:59:33 10° N 21:04:01 73° W 21:08:00 13° S
Meteor 2-20 4.4 20:57:57 10° S 21:04:02 69° E 21:10:08 10° NNE
PSLV R/B 3.7 21:04:08 33° ESE 21:04:58 41° ENE 21:07:54 10° N
Cosmos 1328 Rocket 3.5 21:00:32 10° N 21:05:00 87° E 21:08:13 18° S
S3M 3.9 20:59:03 10° N 21:05:10 89° E 21:10:47 13° S
Cosmos 1833 4.2 21:04:49 10° S 21:10:29 66° ESE 21:16:08 10° NNE
MetOp-B 4.4 21:08:44 24° SE 21:11:49 53° ENE 21:17:00 10° N
Meteor 1-21 Rocket 4.4 21:09:08 10° SSW 21:14:41 71° W 21:20:12 10° N
Delta 128 4.3 21:10:40 10° WSW 21:14:48 35° S 21:16:00 30° SSE
Cosmos 2058 4.0 21:16:00 25° E 21:16:09 25° E 21:19:33 10° NE
Cosmos 1328 4.4 21:16:12 34° ESE 21:16:53 37° E 21:20:32 10° NNE
CZ-4B R/B 3.6 21:11:49 10° NNE 21:17:00 56° E 21:20:20 21° S
GPS 2-04 Rocket1 2.8 21:13:43 10° WNW 21:18:03 72° SSW 21:19:41 36° ESE
Cosmos 1500 Rocket 4.0 21:15:33 10° SSW 21:19:49 60° W 21:24:09 10° N
Cosmos 773 Rocket 4.1 21:21:35 10° N 21:26:44 61° ENE 21:28:49 35° SE
COSMOS 2428 4.4 21:24:24 10° NNE 21:28:25 19° ENE 21:30:25 16° E
AVUM R/B 3.9 21:30:16 34° NNW 21:30:16 34° NNW 21:31:54 10° NNE
Cosmos 304 Rocket 4.4 21:28:00 10° N 21:32:32 39° ENE 21:33:38 34° E
USA 229 DEB 4.2 21:26:33 10° SW 21:33:22 62° WNW 21:40:17 10° NNE
USA 229 4.2 21:26:39 10° SW 21:33:27 62° WNW 21:40:23 10° NNE
FALCON 9 R/B 4.4 20:56:51 10° WSW 21:34:08 87° SSE 21:42:10 10° E
CZ-4 SHROUD 3.8 21:35:59 44° SW 21:36:30 50° W 21:39:34 10° NNW
Delta 2 Rocket 2.6 21:34:12 10° WSW 21:37:39 87° SSE 21:37:41 86° SE
BREEZE M DEB (TANK) 3.5 21:37:57 10° W 21:39:43 25° SW 21:39:43 25° SW
Cosmos 883 Rocket 4.4 21:34:16 10° N 21:40:31 85° E 21:43:37 32° S
USA 245 3.4 21:42:13 42° NNE 21:42:13 42° NNE 21:44:06 10° N
YAOGAN 6 2.5 21:43:09 65° S 21:43:37 82° W 21:47:16 10° NNW
ATLAS CENTAUR R/B 3.0 21:43:01 10° NW 21:46:40 26° WSW 21:48:06 21° SW
Terra 3.1 21:47:00 25° ENE 21:47:23 26° ENE 21:51:17 10° NNE
SL-14 R/B 4.1 21:49:06 36° ENE 21:49:06 36° ENE 21:52:03 10° NNE
Envisat 4.3 21:47:57 17° SSW 21:51:16 35° W 21:55:55 10° NNW
Cosmos 2219 Rocket 4.1 21:49:48 10° NNE 21:52:54 15° NE 21:54:24 14° ENE
DELTA 2 R/B (1) 4.2 21:47:43 10° WNW 21:53:07 51° N 21:56:17 24° ENE
NOSS 3-1 (A) 3.5 21:52:30 44° SE 21:53:08 46° ESE 21:59:03 10° NE
Cosmos 2298 Rocket 4.1 21:56:04 51° ESE 21:56:33 53° ESE 22:01:43 10° NNE
Cosmos 2315 Rocket 3.9 21:50:37 10° N 21:56:50 81° E 21:59:01 43° SSE
CZ-4 R/B 3.9 21:52:06 10° N 21:57:03 80° WNW 21:58:58 37° SSW
ARGOS 3.1 21:56:06 48° SSE 21:57:40 85° ENE 22:03:06 10° NNW
Cosmos 405 3.7 21:54:12 10° NNW 21:57:42 47° W 21:57:59 46° WSW
Meteor 1-27 4.3 21:55:40 10° N 22:01:16 57° E 22:02:14 50° ESE
Cosmos 2219 3.2 21:58:39 25° SSW 22:02:10 85° WNW 22:07:57 10° NNE
Cosmos 2112 Rocket 4.0 21:57:07 10° N 22:02:20 67° ENE 22:03:08 58° ESE
Cosmos 1633 Rocket 3.3 22:03:26 52° ENE 22:03:26 52° ENE 22:07:16 10° NNE
Sich 1 3.2 22:05:00 61° ENE 22:05:00 61° ENE 22:09:05 10° NNE
H-2A R/B 2.2 22:12:25 55° E 22:12:56 57° ENE 22:18:13 10° N
Cosmos 1937 Rocket 4.1 22:15:06 42° ENE 22:15:06 42° ENE 22:19:15 10° NNE
Cosmos 2322 3.7 22:08:44 10° NNW 22:14:28 81° WSW 22:15:33 60° S
Cosmos 1805 Rocket 4.1 22:14:47 49° WSW 22:15:33 56° W 22:19:57 10° N
ATLAS 2AS CENTAUR R/B 3.9 22:16:57 28° E 22:16:57 28° E 22:22:14 10° NE
Cosmos 1726 3.1 22:14:13 10° N 22:16:52 42° NNE 22:16:52 42° NNE
Cosmos 2237 Rocket 4.1 22:15:02 10° NNE 22:18:33 16° ENE 22:19:39 16° ENE
Cosmos 2322 Rocket 4.1 22:17:44 10° NW 22:21:43 20° W 22:24:16 15° SW
SPOT 1/Viking Rocket 4.4 22:23:43 34° SW 22:24:59 40° W 22:29:49 10° NNW
SL-16 R/B 4.2 22:26:33 10° WNW 22:30:21 19° W 22:32:42 15° SW
Nadezhda 1 Rocket 4.2 22:26:11 10° N 22:32:04 49° E 22:32:17 49° E
Cosmos 2360 Rocket 2.6 22:28:10 10° NNW 22:33:37 51° WSW 22:34:21 48° SW
Cosmos 1666 Rocket 4.5 22:37:19 42° W 22:37:27 42° W 22:41:39 10° N
Cosmos 1745 Rocket 3.8 22:36:53 69° S 22:37:41 85° E 22:43:55 10° N
Cosmos 1707 Rocket 4.3 22:33:44 10° NNW 22:37:34 48° WNW 22:37:34 48° WNW
Cosmos 1680 Rocket 4.2 22:35:10 10° NNW 22:40:05 42° WSW 22:40:30 41° WSW
NOSS 3-1 (C) 4.0 22:37:45 18° SW 22:41:58 54° NW 22:48:11 10° NNE
SL-08 R/B 4.5 22:40:59 58° SSW 22:42:11 75° W 22:48:26 10° N
DMSP B5D2-2 4.4 22:45:01 10° N 22:50:07 57° WNW 22:50:40 54° W
Cosmos 1898 Rocket 4.1 22:50:22 48° W 22:51:01 51° WNW 22:56:05 10° N
Cosmos 1626 4.3 22:53:55 22° NNE 22:53:55 22° NNE 22:55:22 10° NNE
Cosmos 1933 Rocket 4.5 22:53:33 46° N 22:53:33 46° N 22:56:43 10° N
Cosmos 2227 Rocket 2.6 22:54:43 52° NE 22:54:43 52° NE 22:59:10 10° NNE
Cosmos 2333 Rocket 2.9 22:55:59 10° N 23:01:12 43° ENE 23:01:12 43° ENE
Meteor 2-10 4.3 23:01:06 10° NNW 23:06:31 70° WNW 23:06:31 70° WNW
SL-16 R/B 4.1 23:05:06 10° NNE 23:09:02 19° ENE 23:09:30 19° ENE
Cosmos 1386 Rocket 4.4 23:11:02 70° W 23:11:08 70° W 23:17:08 10° N
COSMOS 2428 3.3 23:07:27 10° NNW 23:12:26 49° W 23:12:26 49° W
Cosmos 1455 4.4 23:09:46 10° N 23:11:23 24° N 23:11:23 24° N
SeaSat 1 3.2 23:21:10 47° NNE 23:21:10 47° NNE 23:24:56 10° NNW
COSMOS 2455 4.4 23:15:57 10° N 23:20:46 24° NE 23:21:35 23° ENE
Cosmos 2297 Rocket 2.7 23:22:46 52° NE 23:22:46 52° NE 23:27:02 10° NNE
Terra 3.6 23:25:53 25° WNW 23:25:53 25° WNW 23:28:58 10° NW
NOSS 0 Rocket 4.0 23:23:54 10° NNW 23:29:27 74° NNW 23:29:27 74° NNW
Cosmos 2219 Rocket 2.8 23:31:46 10° NNW 23:36:07 52° NW 23:36:07 52° NW
GEOS 3 Rocket 4.3 23:41:20 52° N 23:41:20 52° N 23:45:31 10° NNW
Cosmos 1980 4.3 23:43:41 10° NNW 23:47:57 52° NW 23:47:57 52° NW
H-2A R/B 4.4 23:53:03 14° W 23:53:03 14° W 23:55:24 10° WNW
